Rbgn^[z[y[W
メイン
   新天体発見情報
     Comet C/2022 L4 (PANSTARRS)
投稿するにはまず登録を

スレッド表示 | 新しいものから 前のトピック | 次のトピック | 下へ
投稿者 スレッド
佐藤裕久
投稿日時: 2022-7-13 21:04
モデレータ
登録日: 2005-6-12
居住地: 日本
投稿: 2559
オンライン
Comet C/2022 L4 (PANSTARRS)

6月4日、HaleakalaにあるPan-STARRS2 1.8-m Ritchey-Chretien 反射望遠鏡で得た画像から
小惑星状天体を発見したが、彗星活動があることがわかった。
R. Weryk (西オンタリオ大学,物理および天文学科)によれば、6月27.26日UT、彼とR. Wainscoat
がMauna Keaにある3.6-m Canada-France-Hawaii望遠鏡で得た3枚のgri-バンド画像から0".7の
シーイングで、明らかに0".8(半値全幅:FWHM)の集光した頭部が見え、p.a. 60-110°にわたって
4"の広い尾がある。

発見位置は次のとおり、

     2022 UT             R.A. (2000) Decl.       Mag.
     June  4.39626   17 04 16.67   -12 19 59.4   21.4
           4.40654   17 04 15.08   -12 20 04.0   21.0
           4.41688   17 04 13.46   -12 20 08.1   21.8
           4.42718   17 04 11.89   -12 20 12.2   20.8
           4.48439   17 04 02.91   -12 20 36.0   21.5
           4.48502   17 04 02.81   -12 20 36.4   21.3

MPCの楕円軌道要素、位置推算表は次のとおり、

Orbital elements:
    C/2022 L4 (PANSTARRS)                                                       
Epoch 2022 Aug. 9.0 TT = JDT 2459800.5                                          
T 2021 Dec. 8.71152 TT                                  Rudenko                 
q   3.0149292            (2000.0)            P               Q                  
z  +0.0037045      Peri.  125.31732     +0.34671122     -0.74314716             
 +/-0.0000004      Node    66.04963     -0.92492136     -0.37230057             
e   0.9888311      Incl.  141.22854     +0.15592246     -0.55598974             
From 43 observations 2022 June 4-27, mean residual 0".3.                        
                                                                                
Ephemeris:
Date    TT    R. A. (2000) Decl.     Delta      r    Elong.  Phase   m1
2022 05 31    17 15 36.1 -11 49 36   2.4643  3.4543   165.2     4.3  21.3
...
2022 06 15    16 37 30.0 -13 29 32   2.5392  3.5259   163.8     4.6  21.5
...
2022 06 23    16 18 44.3 -14 17 15   2.6288  3.5656   153.2     7.4  21.6
...
2022 06 29    16 05 55.3 -14 50 11   2.7161  3.5961   145.0     9.3  21.7
2022 06 30    16 03 54.3 -14 55 27   2.7322  3.6013   143.6     9.6  21.7
2022 07 01    16 01 55.5 -15 00 39   2.7487  3.6064   142.2     9.9  21.8
...
2022 07 07    15 50 49.1 -15 30 46   2.8556  3.6376   134.1    11.6  21.9
...
2022 07 15    15 38 06.8 -16 08 26   3.0165  3.6800   123.8    13.3  22.1
...
2022 07 30    15 20 29.6 -17 14 38   3.3580  3.7619   105.7    15.1  22.4

(MPEC 2022-M104、CBET 5144)

スレッド表示 | 新しいものから 前のトピック | 次のトピック | トップ

投稿するにはまず登録を
 
© 1999 Tsutomu Seki.